Location: Unspecified
(0.0000°N, 0.0000°E)
Time: 03:05:23
(UTC+00:00)

CZ-3C DEB - Pass Details

Date: 17 February 2026
Orbit: 506 x 35764 km, 20.4° (Epoch: 1 August)

Event Time Altitude Azimuth Distance (km) Brightness Sun altitude
Rises 21:10:12 0° 259° (W) 15,823 ? -42.9°
Reaches altitude 10° 21:25:06 10° 262° (W) 18,152 ? -46.5°
Maximum altitude 22:41:04 24° 272° (W) 29,110 ? -64.1°
Drops below altitude 10° 01:18:46 10° 281° (W) 40,237 ? -70.1°
Sets 02:41:56 0° 284° (WNW) 40,193 ? -51.5°
